| time (UTC) | temp F | wind direction | speed MPH | gust MPH | rain 1hr in | rain 24hr in | rain mn in | humidity % | barometer mb |
| 20260504050514 | 53 | 212 | 2.0 | 2.0 | 0.00 | 0.00 | 0.00 | 49 | 1001.5 |
| 20260504050011 | 53 | 202 | 2.0 | 2.0 | 0.00 | 0.00 | 0.00 | 48 | 1001.6 |
| 20260504045508 | 53 | 212 | 2.0 | 2.0 | 0.00 | 0.00 | 0.00 | 48 | 1001.7 |
| 20260504045003 | 53 | 209 | 1.0 | 2.0 | 0.00 | 0.00 | 0.00 | 48 | 1001.8 |
| 20260504044501 | 53 | 207 | 2.0 | 2.0 | 0.00 | 0.00 | 0.00 | 47 | 1001.9 |
| 20260504043958 | 53 | 221 | 1.0 | 2.0 | 0.00 | 0.00 | 0.00 | 49 | 1001.9 |
| 20260504043455 | 53 | 221 | 1.0 | 1.0 | 0.00 | 0.00 | 0.00 | 48 | 1002.0 |
| 20260504042952 | 53 | 221 | 1.0 | 2.0 | 0.00 | 0.00 | 0.00 | 48 | 1001.9 |
| 20260504042449 | 53 | 222 | 1.0 | 1.0 | 0.00 | 0.00 | 0.00 | 48 | 1002.1 |
| 20260504041946 | 53 | 222 | 1.0 | 1.0 | 0.00 | 0.00 | 0.00 | 47 | 1002.5 |
| 20260504041442 | 53 | 222 | 1.0 | 1.0 | 0.00 | 0.00 | 0.00 | 47 | 1002.4 |
| 20260504040937 | 54 | 222 | 1.0 | 1.0 | 0.00 | 0.00 | 0.00 | 49 | 1002.6 |
| 20260504040436 | 54 | 222 | 1.0 | 1.0 | 0.00 | 0.00 | 0.00 | 49 | 1002.7 |
| 20260504035931 | 54 | 222 | 1.0 | 1.0 | 0.00 | 0.00 | 0.00 | 49 | 1002.7 |
| 20260504035429 | 54 | 222 | 1.0 | 1.0 | 0.00 | 0.00 | 0.00 | 49 | 1002.8 |
| 20260504034925 | 55 | 222 | 1.0 | 1.0 | 0.00 | 0.00 | 0.00 | 48 | 1002.9 |
| 20260504034423 | 55 | 222 | 1.0 | 1.0 | 0.00 | 0.00 | 0.00 | 48 | 1003.1 |
| 20260504033920 | 55 | 222 | 1.0 | 1.0 | 0.00 | 0.00 | 0.00 | 46 | 1002.8 |
| 20260504033418 | 55 | 223 | 1.0 | 1.0 | 0.00 | 0.00 | 0.00 | 47 | 1002.9 |
| 20260504032914 | 55 | 222 | 1.0 | 1.0 | 0.00 | 0.00 | 0.00 | 47 | 1003.1 |
| 20260504032411 | 55 | 222 | 1.0 | 1.0 | 0.00 | 0.00 | 0.00 | 46 | 1003.1 |
| 20260504031908 | 56 | 223 | 1.0 | 1.0 | 0.00 | 0.00 | 0.00 | 45 | 1003.4 |
| 20260504031405 | 56 | 222 | 1.0 | 1.0 | 0.00 | 0.00 | 0.00 | 46 | 1003.4 |
| 20260504030902 | 56 | 223 | 1.0 | 1.0 | 0.00 | 0.00 | 0.00 | 47 | 1003.3 |
| 20260504030359 | 57 | 223 | 1.0 | 1.0 | 0.00 | 0.00 | 0.00 | 44 | 1003.3 |
| 20260504025854 | 57 | 223 | 1.0 | 1.0 | 0.00 | 0.00 | 0.00 | 45 | 1003.5 |
| 20260504025352 | 57 | 223 | 1.0 | 1.0 | 0.00 | 0.00 | 0.00 | 46 | 1003.4 |
| 20260504024848 | 57 | 223 | 1.0 | 1.0 | 0.00 | 0.00 | 0.00 | 43 | 1003.3 |
| 20260504024345 | 58 | 223 | 1.0 | 1.0 | 0.00 | 0.00 | 0.00 | 42 | 1003.5 |
| 20260504023842 | 58 | 223 | 1.0 | 1.0 | 0.00 | 0.00 | 0.00 | 42 | 1003.6 |
| 20260504023339 | 58 | 223 | 1.0 | 1.0 | 0.00 | 0.00 | 0.00 | 41 | 1003.6 |
| 20260504022834 | 59 | 223 | 1.0 | 1.0 | 0.00 | 0.00 | 0.00 | 40 | 1003.4 |
| 20260504022331 | 59 | 223 | 1.0 | 1.0 | 0.00 | 0.00 | 0.00 | 41 | 1003.5 |
| 20260504021828 | 60 | 223 | 1.0 | 1.0 | 0.00 | 0.00 | 0.00 | 38 | 1003.5 |
| 20260504021325 | 60 | 223 | 1.0 | 1.0 | 0.00 | 0.00 | 0.00 | 38 | 1003.7 |
| 20260504020822 | 60 | 224 | 0.0 | 1.0 | 0.00 | 0.00 | 0.00 | 38 | 1003.4 |
| 20260504020319 | 61 | 223 | 1.0 | 1.0 | 0.00 | 0.00 | 0.00 | 37 | 1003.5 |
| 20260504015815 | 61 | 224 | 1.0 | 1.0 | 0.00 | 0.00 | 0.00 | 36 | 1003.4 |
| 20260504015311 | 62 | 223 | 1.0 | 1.0 | 0.00 | 0.00 | 0.00 | 35 | 1003.7 |
| 20260504014808 | 62 | 223 | 1.0 | 2.0 | 0.00 | 0.00 | 0.00 | 33 | 1003.8 |
| 20260504014304 | 63 | 224 | 0.0 | 1.0 | 0.00 | 0.00 | 0.00 | 34 | 1003.8 |
| 20260504013802 | 63 | 227 | 1.0 | 1.0 | 0.00 | 0.00 | 0.00 | 33 | 1003.7 |
| 20260504013259 | 64 | 226 | 1.0 | 1.0 | 0.00 | 0.00 | 0.00 | 32 | 1003.8 |
| 20260504012755 | 64 | 226 | 1.0 | 1.0 | 0.00 | 0.00 | 0.00 | 31 | 1003.9 |
| 20260504012254 | 65 | 244 | 1.0 | 1.0 | 0.00 | 0.00 | 0.00 | 30 | 1003.7 |
| 20260504011750 | 65 | 245 | 1.0 | 2.0 | 0.00 | 0.00 | 0.00 | 29 | 1003.9 |
| 20260504011247 | 65 | 236 | 0.0 | 1.0 | 0.00 | 0.00 | 0.00 | 29 | 1003.6 |
| 20260504010743 | 66 | 235 | 1.0 | 1.0 | 0.00 | 0.00 | 0.00 | 28 | 1003.9 |
| 20260504010238 | 66 | 263 | 1.0 | 2.0 | 0.00 | 0.00 | 0.00 | 27 | 1004.0 |
| 20260504005736 | 67 | 241 | 1.0 | 2.0 | 0.00 | 0.00 | 0.00 | 27 | 1003.8 |
| 20260504005233 | 67 | 251 | 1.0 | 1.0 | 0.00 | 0.00 | 0.00 | 27 | 1004.0 |
| 20260504004730 | 67 | 226 | 1.0 | 2.0 | 0.00 | 0.00 | 0.00 | 26 | 1003.9 |
| 20260504004227 | 67 | 255 | 1.0 | 2.0 | 0.00 | 0.00 | 0.00 | 26 | 1003.8 |
| 20260504003724 | 68 | 236 | 1.0 | 2.0 | 0.00 | 0.00 | 0.00 | 25 | 1003.9 |
| 20260504003221 | 68 | 251 | 2.0 | 2.0 | 0.00 | 0.00 | 0.00 | 25 | 1003.9 |
| 20260504002717 | 68 | 266 | 1.0 | 2.0 | 0.00 | 0.00 | 0.00 | 25 | 1004.0 |
| 20260504002214 | 68 | 268 | 2.0 | 5.0 | 0.00 | 0.00 | 0.00 | 25 | 1004.0 |
| 20260504001712 | 69 | 220 | 2.0 | 3.0 | 0.00 | 0.00 | 0.00 | 25 | 1004.1 |
| 20260504001209 | 69 | 279 | 3.0 | 5.0 | 0.00 | 0.00 | 0.00 | 25 | 1004.1 |
| 20260504000705 | 69 | 253 | 1.0 | 3.0 | 0.00 | 0.00 | 0.00 | 24 | 1003.9 |
| 20260504000204 | 69 | 238 | 2.0 | 5.0 | 0.00 | 0.00 | 0.00 | 24 | 1003.9 |
| 20260503235701 | 70 | 254 | 2.0 | 6.0 | 0.00 | 0.00 | 0.00 | 24 | 1004.1 |
| 20260503235157 | 70 | 271 | 0.0 | 5.0 | 0.00 | 0.00 | 0.00 | 23 | 1004.0 |
| 20260503234655 | 70 | 274 | 2.0 | 7.0 | 0.00 | 0.00 | 0.00 | 24 | 1003.9 |
| 20260503234153 | 70 | 241 | 1.0 | 3.0 | 0.00 | 0.00 | 0.00 | 24 | 1004.1 |
| 20260503233649 | 70 | 269 | 2.0 | 5.0 | 0.00 | 0.00 | 0.00 | 23 | 1004.2 |
| 20260503233145 | 71 | 251 | 3.0 | 6.0 | 0.00 | 0.00 | 0.00 | 22 | 1004.1 |
| 20260503232642 | 70 | 218 | 3.0 | 5.0 | 0.00 | 0.00 | 0.00 | 23 | 1004.2 |
| 20260503232140 | 71 | 288 | 3.0 | 6.0 | 0.00 | 0.00 | 0.00 | 24 | 1004.2 |
| 20260503231638 | 70 | 244 | 2.0 | 5.0 | 0.00 | 0.00 | 0.00 | 24 | 1004.2 |
| 20260503231134 | 71 | 229 | 3.0 | 5.0 | 0.00 | 0.00 | 0.00 | 25 | 1004.2 |
| 20260503230631 | 70 | 240 | 4.0 | 6.0 | 0.00 | 0.00 | 0.00 | 24 | 1004.2 |
| 20260503230128 | 70 | 297 | 4.0 | 6.0 | 0.00 | 0.00 | 0.00 | 24 | 1004.3 |
| 20260503225626 | 71 | 300 | 1.0 | 7.0 | 0.00 | 0.00 | 0.00 | 24 | 1004.3 |
| 20260503225125 | 71 | 274 | 5.0 | 10.0 | 0.00 | 0.00 | 0.00 | 25 | 1004.2 |
| 20260503224623 | 71 | 244 | 2.0 | 3.0 | 0.00 | 0.00 | 0.00 | 26 | 1004.2 |
| 20260503224121 | 71 | 295 | 3.0 | 5.0 | 0.00 | 0.00 | 0.00 | 25 | 1004.2 |
| 20260503223618 | 71 | 279 | 2.0 | 7.0 | 0.00 | 0.00 | 0.00 | 26 | 1004.3 |
| 20260503223114 | 71 | 285 | 3.0 | 5.0 | 0.00 | 0.00 | 0.00 | 25 | 1004.5 |
| 20260503222612 | 71 | 275 | 4.0 | 6.0 | 0.00 | 0.00 | 0.00 | 23 | 1004.5 |
| 20260503222109 | 71 | 278 | 3.0 | 7.0 | 0.00 | 0.00 | 0.00 | 25 | 1004.5 |
| 20260503221608 | 72 | 274 | 5.0 | 7.0 | 0.00 | 0.00 | 0.00 | 25 | 1004.3 |
| 20260503221105 | 71 | 312 | 3.0 | 7.0 | 0.00 | 0.00 | 0.00 | 27 | 1004.4 |
| 20260503220601 | 72 | 257 | 5.0 | 7.0 | 0.00 | 0.00 | 0.00 | 26 | 1004.2 |
| 20260503220058 | 72 | 223 | 1.0 | 5.0 | 0.00 | 0.00 | 0.00 | 27 | 1004.3 |
| 20260503215555 | 71 | 244 | 3.0 | 6.0 | 0.00 | 0.00 | 0.00 | 26 | 1004.4 |
| 20260503215052 | 71 | 258 | 4.0 | 8.0 | 0.00 | 0.00 | 0.00 | 26 | 1004.3 |
| 20260503214550 | 72 | 286 | 4.0 | 7.0 | 0.00 | 0.00 | 0.00 | 24 | 1004.3 |
| 20260503214046 | 71 | 244 | 4.0 | 8.0 | 0.00 | 0.00 | 0.00 | 24 | 1004.4 |
| 20260503213545 | 72 | 280 | 4.0 | 6.0 | 0.00 | 0.00 | 0.00 | 24 | 1004.5 |
| 20260503213041 | 71 | 258 | 2.0 | 3.0 | 0.00 | 0.00 | 0.00 | 24 | 1004.4 |
| 20260503212539 | 71 | 349 | 3.0 | 5.0 | 0.00 | 0.00 | 0.00 | 24 | 1004.3 |
| 20260503212036 | 71 | 280 | 4.0 | 9.0 | 0.00 | 0.00 | 0.00 | 23 | 1004.5 |
| 20260503211533 | 71 | 254 | 3.0 | 5.0 | 0.00 | 0.00 | 0.00 | 25 | 1004.5 |
| 20260503211028 | 71 | 267 | 2.0 | 8.0 | 0.00 | 0.00 | 0.00 | 24 | 1004.6 |
| 20260503210525 | 71 | 334 | 4.0 | 10.0 | 0.00 | 0.00 | 0.00 | 23 | 1004.7 |
| 20260503210021 | 70 | 279 | 1.0 | 3.0 | 0.00 | 0.00 | 0.00 | 23 | 1004.4 |
| 20260503205518 | 72 | 292 | 4.0 | 9.0 | 0.00 | 0.00 | 0.00 | 22 | 1004.6 |
| 20260503205015 | 71 | 306 | 4.0 | 7.0 | 0.00 | 0.00 | 0.00 | 23 | 1004.5 |
| 20260503204512 | 71 | 245 | 4.0 | 7.0 | 0.00 | 0.00 | 0.00 | 24 | 1004.7 |
| 20260503204008 | 72 | 253 | 4.0 | 8.0 | 0.00 | 0.00 | 0.00 | 23 | 1004.7 |
| 20260503203506 | 72 | 259 | 1.0 | 5.0 | 0.00 | 0.00 | 0.00 | 23 | 1004.7 |
| 20260503203003 | 70 | 251 | 4.0 | 7.0 | 0.00 | 0.00 | 0.00 | 23 | 1004.9 |
| 20260503202500 | 72 | 215 | 4.0 | 8.0 | 0.00 | 0.00 | 0.00 | 22 | 1004.9 |
| 20260503201958 | 72 | 223 | 5.0 | 6.0 | 0.00 | 0.00 | 0.00 | 24 | 1004.6 |
| 20260503201456 | 71 | 289 | 5.0 | 14.0 | 0.00 | 0.00 | 0.00 | 24 | 1005.0 |
| 20260503200953 | 71 | 272 | 4.0 | 6.0 | 0.00 | 0.00 | 0.00 | 25 | 1005.0 |
| 20260503200449 | 70 | 283 | 4.0 | 6.0 | 0.00 | 0.00 | 0.00 | 24 | 1005.0 |
| 20260503195946 | 71 | 275 | 5.0 | 13.0 | 0.00 | 0.00 | 0.00 | 25 | 1005.2 |
| 20260503195443 | 70 | 331 | 5.0 | 7.0 | 0.00 | 0.00 | 0.00 | 28 | 1005.2 |
| 20260503194940 | 71 | 2 | 4.0 | 5.0 | 0.00 | 0.00 | 0.00 | 28 | 1005.1 |
| 20260503194437 | 71 | 272 | 4.0 | 8.0 | 0.00 | 0.00 | 0.00 | 28 | 1005.3 |
| 20260503193932 | 71 | 245 | 2.0 | 7.0 | 0.00 | 0.00 | 0.00 | 30 | 1005.2 |
| 20260503193428 | 70 | 291 | 3.0 | 8.0 | 0.00 | 0.00 | 0.00 | 29 | 1005.2 |
| 20260503192923 | 70 | 345 | 5.0 | 10.0 | 0.00 | 0.00 | 0.00 | 29 | 1005.0 |
| 20260503192420 | 71 | 0 | 6.0 | 8.0 | 0.00 | 0.00 | 0.00 | 29 | 1005.2 |
| 20260503191916 | 70 | 321 | 5.0 | 6.0 | 0.00 | 0.00 | 0.00 | 29 | 1005.2 |
| 20260503191414 | 70 | 224 | 2.0 | 10.0 | 0.00 | 0.00 | 0.00 | 33 | 1005.3 |
| 20260503190910 | 71 | 287 | 5.0 | 7.0 | 0.00 | 0.00 | 0.00 | 34 | 1005.1 |
| 20260503190408 | 70 | 279 | 5.0 | 8.0 | 0.00 | 0.00 | 0.00 | 34 | 1005.0 |
| 20260503185904 | 69 | 227 | 4.0 | 8.0 | 0.00 | 0.00 | 0.00 | 33 | 1005.0 |
| 20260503185401 | 70 | 267 | 5.0 | 7.0 | 0.00 | 0.00 | 0.00 | 34 | 1005.4 |
| 20260503184900 | 70 | 236 | 4.0 | 8.0 | 0.00 | 0.00 | 0.00 | 33 | 1005.3 |
| 20260503184356 | 70 | 288 | 7.0 | 9.0 | 0.00 | 0.00 | 0.00 | 32 | 1005.4 |
| 20260503183852 | 70 | 303 | 3.0 | 5.0 | 0.00 | 0.00 | 0.00 | 33 | 1005.6 |
| 20260503183350 | 69 | 281 | 5.0 | 9.0 | 0.00 | 0.00 | 0.00 | 34 | 1005.4 |
| 20260503182847 | 69 | 18 | 2.0 | 7.0 | 0.00 | 0.00 | 0.00 | 36 | 1005.3 |
| 20260503182346 | 69 | 301 | 5.0 | 7.0 | 0.00 | 0.00 | 0.00 | 36 | 1005.3 |
| 20260503181842 | 69 | 304 | 6.0 | 11.0 | 0.00 | 0.00 | 0.00 | 36 | 1005.5 |
| 20260503181339 | 69 | 278 | 4.0 | 11.0 | 0.00 | 0.00 | 0.00 | 35 | 1005.3 |
| 20260503180836 | 68 | 262 | 5.0 | 6.0 | 0.00 | 0.00 | 0.00 | 36 | 1005.5 |
| 20260503180334 | 68 | 279 | 3.0 | 8.0 | 0.00 | 0.00 | 0.00 | 36 | 1005.4 |
| 20260503175830 | 69 | 0 | 5.0 | 8.0 | 0.00 | 0.00 | 0.00 | 34 | 1005.6 |
| 20260503175328 | 68 | 289 | 2.0 | 6.0 | 0.00 | 0.00 | 0.00 | 34 | 1005.8 |
| 20260503174823 | 68 | 262 | 4.0 | 8.0 | 0.00 | 0.00 | 0.00 | 35 | 1005.7 |
| 20260503174322 | 68 | 244 | 3.0 | 7.0 | 0.00 | 0.00 | 0.00 | 33 | 1005.7 |
| 20260503173817 | 68 | 311 | 4.0 | 8.0 | 0.00 | 0.00 | 0.00 | 35 | 1005.8 |
| 20260503173314 | 68 | 319 | 5.0 | 8.0 | 0.00 | 0.00 | 0.00 | 35 | 1005.7 |
| 20260503172810 | 68 | 267 | 2.0 | 7.0 | 0.00 | 0.00 | 0.00 | 35 | 1005.8 |
| 20260503172308 | 68 | 268 | 4.0 | 9.0 | 0.00 | 0.00 | 0.00 | 34 | 1005.8 |
| 20260503171804 | 68 | 335 | 8.0 | 9.0 | 0.00 | 0.00 | 0.00 | 35 | 1005.9 |
| 20260503171301 | 67 | 341 | 2.0 | 6.0 | 0.00 | 0.00 | 0.00 | 37 | 1005.9 |
| 20260503170758 | 68 | 303 | 3.0 | 8.0 | 0.00 | 0.00 | 0.00 | 36 | 1006.0 |
| 20260503170254 | 67 | 302 | 3.0 | 9.0 | 0.00 | 0.00 | 0.00 | 36 | 1005.8 |
| 20260503160217 | 65 | 314 | 7.0 | 10.0 | 0.00 | 0.00 | 0.00 | 40 | 1005.7 |
| 20260503150647 | 62 | 45 | 3.0 | 6.0 | 0.00 | 0.00 | 0.00 | 44 | 1005.5 |
| 20260503150143 | 62 | 311 | 2.0 | 7.0 | 0.00 | 0.00 | 0.00 | 44 | 1005.4 |
| 20260503140107 | 59 | 247 | 2.0 | 2.0 | 0.00 | 0.00 | 0.00 | 45 | 1005.4 |
| 20260503131037 | 56 | 224 | 1.0 | 2.0 | 0.00 | 0.00 | 0.00 | 51 | 1005.0 |
| 20260503130534 | 55 | 245 | 1.0 | 2.0 | 0.00 | 0.00 | 0.00 | 50 | 1004.9 |
| 20260503110425 | 51 | 208 | 1.0 | 1.0 | 0.00 | 0.00 | 0.00 | 56 | 1004.3 |
| 20260503090310 | 57 | 188 | 3.0 | 3.0 | 0.00 | 0.00 | 0.00 | 44 | 1004.9 |
| 20260503081237 | 57 | 223 | 2.0 | 7.0 | 0.00 | 0.00 | 0.00 | 48 | 1005.4 |
| 20260503080732 | 57 | 193 | 1.0 | 3.0 | 0.00 | 0.00 | 0.00 | 50 | 1005.3 |
| 20260503080230 | 57 | 214 | 3.0 | 3.0 | 0.00 | 0.00 | 0.00 | 51 | 1005.3 |
| 20260503072707 | 55 | 204 | 2.0 | 2.0 | 0.00 | 0.00 | 0.00 | 54 | 1006.1 |
| 20260503072203 | 56 | 207 | 1.0 | 5.0 | 0.00 | 0.00 | 0.00 | 53 | 1006.2 |
| 20260503071700 | 55 | 190 | 3.0 | 3.0 | 0.00 | 0.00 | 0.00 | 53 | 1006.3 |
| 20260503071157 | 55 | 186 | 2.0 | 2.0 | 0.00 | 0.00 | 0.00 | 55 | 1006.4 |
| 20260503070653 | 55 | 189 | 2.0 | 3.0 | 0.00 | 0.00 | 0.00 | 56 | 1006.4 |
| 20260503070152 | 55 | 198 | 2.0 | 3.0 | 0.00 | 0.00 | 0.00 | 54 | 1006.7 |